This is the latest recevied weather packets stored in our database for station/object OE-11343. If no packets are shown the sender has not sent any weather packets the latest 10 day(s).
| Time | Temp. | Humidity | Pressure | Rain* | Wind** | Luminosity | Snow |
|---|---|---|---|---|---|---|---|
| 1787888724 | 8.33° C | 77% | 718.2 hPa | - | - | 0 W/m² | - |
| 1787888124 | 8.33° C | 76% | 718.4 hPa | - | - | 0 W/m² | - |
| 1787887524 | 7.78° C | 78% | 718.4 hPa | - | - | 0 W/m² | - |
| 1787886694 | 8.33° C | 77% | 718.4 hPa | - | - | 0 W/m² | - |
| 1787886323 | 8.33° C | 78% | 718.4 hPa | - | - | 0 W/m² | - |
| 1787885725 | 8.33° C | 78% | 718.4 hPa | - | - | 0 W/m² | - |
| 1787884898 | 8.33° C | 77% | 718.4 hPa | - | - | 0 W/m² | - |
| 1787884525 | 8.33° C | 78% | 718.4 hPa | - | - | 0 W/m² | - |
| 1787883925 | 8.33° C | 78% | 718.4 hPa | - | - | 0 W/m² | - |
| 1787883098 | 8.33° C | 77% | 718.4 hPa | - | - | 0 W/m² | - |
| 1787882725 | 8.33° C | 79% | 718.4 hPa | - | - | 0 W/m² | - |
| 1787882120 | 8.33° C | 78% | 718.5 hPa | - | - | 0 W/m² | - |
| 1787881298 | 8.33° C | 78% | 718.7 hPa | - | - | 0 W/m² | - |
| 1787880925 | 8.33° C | 79% | 718.2 hPa | - | - | 0 W/m² | - |
| 1787880325 | 8.33° C | 79% | 718.4 hPa | - | - | 0 W/m² | - |
| 1787879497 | 8.33° C | 79% | 718.4 hPa | - | - | 0 W/m² | - |
| 1787879124 | 8.33° C | 79% | 718.5 hPa | - | - | 0 W/m² | - |
| 1787878525 | 8.33° C | 79% | 718.7 hPa | - | - | 0 W/m² | - |
| 1787877697 | 8.33° C | 80% | 718.4 hPa | - | - | 0 W/m² | - |
| 1787877325 | 8.33° C | 78% | 718.5 hPa | - | - | 0 W/m² | - |
| 1787876725 | 8.33° C | 77% | 718.7 hPa | - | - | 0 W/m² | - |
| 1787875897 | 8.89° C | 75% | 718.8 hPa | - | - | 0 W/m² | - |
| 1787875524 | 8.89° C | 75% | 719 hPa | - | - | 0 W/m² | - |
| 1787874925 | 8.89° C | 72% | 719.1 hPa | - | - | 0 W/m² | - |
| 1787874097 | 8.89° C | 74% | 719.2 hPa | - | - | 0 W/m² | - |
* Rain since midnight (hover to see other rain measurements)
** Current wind speed in m/s (hover to see current wind gust speed)